User: anonymous
Location: Oshawa
(43.9000°N, 78.8670°W)
Time: 04:24:24
(UTC-04:00)
Language:

Cosmos 1500 - Orbit

View from above orbital plane
View from above orbital plane
View from above satellite
View from above satellite

Ground track
Ground track

The orbit data is extracted from the following two-line orbital elements,

1 14372U 83099A   14274.71466824  .00007273  00000-0  42170-3 0  6535
2 14372 082.5182 238.5939 0015688 276.3990 138.5424 15.11923835687925
Epoch (UTC): 01 October 2014 17:09:07
Eccentricity: 0.0015688
inclination: 82.5182°
perigee height: 519 km
apogee height: 541 km
right ascension of ascending node: 238.5939°
argument of perigee: 276.3990°
revolutions per day: 15.11923835
mean anomaly at epoch: 138.5424°
orbit number at epoch: 68792

The dashed part of the orbit path shows where the satellite is in the earth's shadow,  

DLR